THY255 EDDM-EDDL

Flight info

Callsign THY255
Flight time N/A
Altitude 32000
Route GIVMI6Q/08L GIVMI Y101 INBED DCT REKDI DCT LOHRE Z850 ARPEG/N0405F240 Z850 ADEMI T854 DOMUX DOMUX1A
Aircraft A346/H-SDE2E3FGHIJ3J4J5M1RWXY/LB1D1

Departure

Time 2026-05-01 10:45
Airport Munich Airport (EDDM)

Arrival

Time N/A
Airport Düsseldorf Airport (EDDL)
Time Latitude Longitude Altitude Speed Heading
2026-05-01 10:16 48.34996 11.78358 1479 ft 0 kts 82°
2026-05-01 10:31 48.34987 11.78304 1482 ft 4 kts 66°
2026-05-01 10:32 48.34956 11.78247 1466 ft 4 kts 29°
2026-05-01 10:32 48.34932 11.78233 1466 ft 4 kts 11°
2026-05-01 10:32 48.34894 11.78229 1468 ft 0 kts
2026-05-01 10:38 48.34920 11.78229 1475 ft 6 kts
2026-05-01 10:38 48.34972 11.78224 1476 ft 9 kts 354°
2026-05-01 10:38 48.35047 11.78211 1468 ft 12 kts 353°
2026-05-01 10:39 48.35139 11.78196 1472 ft 14 kts 354°
2026-05-01 10:39 48.35252 11.78178 1472 ft 18 kts 354°
2026-05-01 10:39 48.35334 11.78165 1470 ft 10 kts 354°
2026-05-01 10:39 48.35417 11.78151 1476 ft 13 kts 354°
2026-05-01 10:40 48.35465 11.78144 1479 ft 7 kts 354°
2026-05-01 10:40 48.35470 11.78143 1479 ft 0 kts 354°
2026-05-01 10:40 48.35528 11.78131 1472 ft 12 kts 352°
2026-05-01 10:41 48.35622 11.78113 1476 ft 15 kts 354°
2026-05-01 10:41 48.35728 11.78095 1479 ft 13 kts 350°
2026-05-01 10:41 48.35781 11.78045 1473 ft 0 kts 303°
2026-05-01 10:42 48.35787 11.78007 1471 ft 6 kts 277°
2026-05-01 10:42 48.35785 11.77898 1475 ft 15 kts 265°
2026-05-01 10:42 48.35783 11.77756 1473 ft 11 kts 296°
2026-05-01 10:42 48.35858 11.77695 1474 ft 12 kts 351°
2026-05-01 10:43 48.35928 11.77676 1469 ft 11 kts 335°
2026-05-01 10:43 48.35957 11.77572 1475 ft 12 kts 266°
2026-05-01 10:43 48.35948 11.77428 1469 ft 15 kts 263°
2026-05-01 10:43 48.35935 11.77255 1470 ft 18 kts 263°
2026-05-01 10:44 48.35945 11.77073 1473 ft 18 kts 297°
2026-05-01 10:44 48.36045 11.76974 1474 ft 19 kts 352°
2026-05-01 10:44 48.36165 11.76948 1479 ft 17 kts 352°
2026-05-01 10:44 48.36275 11.76961 1469 ft 15 kts 40°
2026-05-01 10:45 48.36300 11.77055 1484 ft 8 kts 82°
2026-05-01 10:45 48.36332 11.77473 1483 ft 82 kts 83°
2026-05-01 10:45 48.36431 11.78777 1478 ft 159 kts 83°
2026-05-01 10:45 48.36558 11.80591 2114 ft 178 kts 84°
2026-05-01 10:46 48.36686 11.82464 3095 ft 184 kts 84°
2026-05-01 10:46 48.36844 11.84437 3915 ft 187 kts 82°
2026-05-01 10:46 48.37309 11.86333 4365 ft 205 kts 58°
2026-05-01 10:46 48.38516 11.87857 4864 ft 239 kts 28°
2026-05-01 10:47 48.40267 11.88223 5482 ft 270 kts 353°
2026-05-01 10:47 48.41992 11.86942 6242 ft 287 kts 320°
2026-05-01 10:47 48.43352 11.84694 7294 ft 288 kts 311°
2026-05-01 10:47 48.44592 11.82288 8282 ft 290 kts 310°
2026-05-01 10:48 48.45848 11.79860 9245 ft 293 kts 311°
2026-05-01 10:48 48.47149 11.77429 10192 ft 296 kts 313°
2026-05-01 10:48 48.48469 11.75022 11048 ft 299 kts 313°
2026-05-01 10:48 48.49825 11.72586 11910 ft 302 kts 314°
2026-05-01 10:49 48.51189 11.70153 12825 ft 304 kts 314°
2026-05-01 10:49 48.52580 11.67680 13750 ft 307 kts 314°
2026-05-01 10:49 48.53949 11.65241 14598 ft 311 kts 314°
2026-05-01 10:49 48.55375 11.62701 15378 ft 314 kts 314°
2026-05-01 10:50 48.56790 11.60176 16150 ft 317 kts 315°
2026-05-01 10:50 48.58252 11.57578 16850 ft 325 kts 315°
2026-05-01 10:50 48.62470 11.50126 17801 ft 372 kts 314°
2026-05-01 10:50 48.67441 11.41279 18762 ft 416 kts 314°
2026-05-01 10:51 48.73178 11.33289 20605 ft 416 kts 329°
2026-05-01 10:51 48.80081 11.26362 22500 ft 426 kts 331°
2026-05-01 10:51 48.87626 11.20311 24364 ft 428 kts 343°
2026-05-01 10:51 48.95469 11.16299 25892 ft 436 kts 346°
2026-05-01 10:52 49.03239 11.12401 27290 ft 445 kts 346°
2026-05-01 10:52 49.11134 11.08365 29399 ft 438 kts 347°
2026-05-01 10:52 49.18749 11.04477 31248 ft 434 kts 347°
2026-05-01 10:52 49.26849 11.00319 32443 ft 441 kts 347°
2026-05-01 10:53 49.34726 10.95402 32401 ft 450 kts 337°
2026-05-01 10:53 49.40739 10.89118 32400 ft 460 kts 326°
2026-05-01 10:53 49.44625 10.83233 32400 ft 467 kts 316°
2026-05-01 10:54 49.56047 10.61359 32386 ft 464 kts 314°
2026-05-01 10:54 49.64004 10.46124 32385 ft 464 kts 314°
2026-05-01 10:55 49.66519 10.40971 32293 ft 435 kts 311°
2026-05-01 10:55 49.70893 10.31081 32345 ft 405 kts 310°
2026-05-01 10:56 49.79625 10.11270 32397 ft 425 kts 310°
2026-05-01 10:56 49.84519 10.00042 32458 ft 441 kts 309°
2026-05-01 10:56 49.89678 9.88194 32386 ft 466 kts 309°
2026-05-01 10:57 50.00020 9.64230 32374 ft 467 kts 308°
2026-05-01 10:57 50.10652 9.43771 32368 ft 458 kts 322°
2026-05-01 10:58 50.21587 9.29770 32376 ft 459 kts 326°
2026-05-01 10:58 50.36200 9.11199 32364 ft 460 kts 326°
2026-05-01 10:59 50.43144 9.02304 32381 ft 460 kts 325°
2026-05-01 10:59 50.48159 8.95852 32372 ft 460 kts 325°
2026-05-01 11:00 50.53179 8.89421 32355 ft 460 kts 327°
2026-05-01 11:00 50.58232 8.83333 32376 ft 460 kts 327°
2026-05-01 11:01 50.63362 8.77207 32322 ft 458 kts 327°
2026-05-01 11:01 50.65889 8.74170 31795 ft 457 kts 327°
2026-05-01 11:01 50.68451 8.71092 30641 ft 469 kts 327°
2026-05-01 11:01 50.70229 8.68954 29733 ft 474 kts 327°
2026-05-01 11:02 50.72802 8.65847 28713 ft 465 kts 327°
2026-05-01 11:02 50.75479 8.62597 28309 ft 459 kts 327°
2026-05-01 11:02 50.78016 8.59521 27830 ft 460 kts 327°
2026-05-01 11:02 50.80602 8.56385 27220 ft 461 kts 327°
2026-05-01 11:03 50.83147 8.53294 26583 ft 460 kts 327°
2026-05-01 11:03 50.85708 8.50176 26153 ft 457 kts 327°
2026-05-01 11:03 50.88223 8.47107 25711 ft 454 kts 326°
2026-05-01 11:03 50.90717 8.44062 25245 ft 451 kts 326°
2026-05-01 11:04 50.93206 8.41016 24801 ft 447 kts 326°
2026-05-01 11:04 50.95700 8.37962 24354 ft 443 kts 326°
2026-05-01 11:04 50.98177 8.34924 23785 ft 441 kts 326°
2026-05-01 11:04 51.00666 8.31962 22732 ft 446 kts 328°
2026-05-01 11:05 51.03309 8.29215 22029 ft 443 kts 332°
2026-05-01 11:05 51.05978 8.26754 21489 ft 437 kts 334°
2026-05-01 11:05 51.08615 8.24409 20870 ft 434 kts 334°
2026-05-01 11:05 51.11283 8.22055 20280 ft 431 kts 334°
2026-05-01 11:06 51.13990 8.19659 19736 ft 427 kts 334°
2026-05-01 11:06 51.16579 8.17358 19132 ft 425 kts 334°
2026-05-01 11:06 51.19191 8.15029 18542 ft 423 kts 334°
2026-05-01 11:07 51.24311 8.10452 17310 ft 417 kts 334°
2026-05-01 11:07 51.26852 8.08173 16729 ft 413 kts 334°
2026-05-01 11:07 51.29371 8.05908 16145 ft 411 kts 334°
2026-05-01 11:07 51.31862 8.03666 15601 ft 408 kts 334°
2026-05-01 11:08 51.34349 8.01426 15036 ft 406 kts 334°
2026-05-01 11:08 51.36793 7.99221 14633 ft 400 kts 334°
2026-05-01 11:08 51.41573 7.94902 13832 ft 386 kts 334°
2026-05-01 11:09 51.43864 7.92838 13425 ft 378 kts 334°
2026-05-01 11:09 51.46134 7.90673 12608 ft 371 kts 325°
2026-05-01 11:09 51.47772 7.87655 11999 ft 363 kts 298°
2026-05-01 11:10 51.47888 7.79947 10754 ft 338 kts 240°
2026-05-01 11:10 51.46755 7.76699 10205 ft 328 kts 238°
2026-05-01 11:10 51.45722 7.73244 9599 ft 319 kts 245°
2026-05-01 11:10 51.44904 7.69655 9091 ft 309 kts 249°
2026-05-01 11:11 51.44190 7.65925 8535 ft 302 kts 251°
2026-05-01 11:11 51.43554 7.62394 8154 ft 300 kts 251°
2026-05-01 11:11 51.42950 7.59003 7801 ft 298 kts 251°
2026-05-01 11:11 51.42371 7.55739 7498 ft 296 kts 253°
2026-05-01 11:12 51.41957 7.52456 7187 ft 294 kts 260°
2026-05-01 11:12 51.41770 7.49152 6931 ft 290 kts 264°
2026-05-01 11:12 51.41661 7.45947 6701 ft 284 kts 265°
2026-05-01 11:12 51.41561 7.42823 6466 ft 279 kts 264°
2026-05-01 11:13 51.41457 7.39680 6191 ft 275 kts 264°
2026-05-01 11:13 51.41350 7.36682 5983 ft 271 kts 264°
2026-05-01 11:13 51.41238 7.33669 5667 ft 270 kts 263°
2026-05-01 11:13 51.41121 7.30640 5301 ft 272 kts 263°
2026-05-01 11:14 51.41007 7.27626 5085 ft 270 kts 263°
2026-05-01 11:14 51.40884 7.24600 4685 ft 271 kts 263°
2026-05-01 11:14 51.40765 7.21602 4446 ft 265 kts 263°
2026-05-01 11:14 51.40661 7.18893 4224 ft 261 kts 263°
2026-05-01 11:15 51.40545 7.15941 3932 ft 256 kts 263°
2026-05-01 11:15 51.40430 7.13093 3703 ft 250 kts 263°
2026-05-01 11:15 51.40317 7.10255 3471 ft 249 kts 263°
2026-05-01 11:15 51.40197 7.07394 3544 ft 262 kts 263°
2026-05-01 11:16 51.40082 7.04498 3990 ft 253 kts 263°
2026-05-01 11:16 51.39955 7.01665 3994 ft 250 kts 259°
2026-05-01 11:16 51.39339 6.99069 3918 ft 234 kts 234°
2026-05-01 11:16 51.38425 6.96989 3692 ft 221 kts 226°
2026-05-01 11:17 51.37484 6.95105 3382 ft 207 kts 225°
2026-05-01 11:17 51.36532 6.93196 2836 ft 202 kts 227°
2026-05-01 11:17 51.35582 6.91223 2221 ft 200 kts 227°
2026-05-01 11:17 51.34639 6.89237 1831 ft 193 kts 227°
2026-05-01 11:18 51.33761 6.87382 1553 ft 183 kts 227°
2026-05-01 11:18 51.32894 6.85560 1256 ft 171 kts 227°
2026-05-01 11:18 51.32119 6.83924 982 ft 161 kts 228°
2026-05-01 11:18 51.31348 6.82262 663 ft 156 kts 229°
2026-05-01 11:19 51.30614 6.80674 601 ft 156 kts 225°
2026-05-01 11:19 51.29838 6.79132 375 ft 155 kts 226°
2026-05-01 11:19 51.29184 6.77727 160 ft 152 kts 224°
2026-05-01 11:19 51.28589 6.76500 142 ft 105 kts 229°
2026-05-01 11:20 51.32418 6.84407 1294 ft 3498 kts 231°
2026-05-01 11:20 51.32119 6.83936 985 ft 163 kts 230°
2026-05-01 11:20 51.31438 6.82395 870 ft 162 kts 226°
2026-05-01 11:20 51.30828 6.81154 619 ft 1484 kts 229°
2026-05-01 11:21 51.40493 7.01413 4137 ft 166 kts 229°
2026-05-01 11:21 51.39839 6.99950 4049 ft 148 kts 226°
2026-05-01 11:21 51.39275 6.98722 3900 ft 127 kts 225°
2026-05-01 11:21 51.38723 6.97454 3151 ft 149 kts 227°
2026-05-01 11:22 51.38098 6.96048 2481 ft 157 kts 227°
2026-05-01 11:22 51.37446 6.94687 2366 ft 152 kts 224°
2026-05-01 11:22 51.36762 6.93372 2240 ft 154 kts 226°
2026-05-01 11:22 51.36114 6.91970 1991 ft 158 kts 230°